Location: Helstorf
(52.5868°N, 9.5862°E)
Time: 22:37:59
(UTC+00:00)

Cosmos 192 - Pass Details

Date: 15 May 2026
Orbit: 695 x 707 km, 74.0° (Epoch: 10 June)

Event Time Altitude Azimuth Distance (km) Brightness Sun altitude
Rises 23:14:41 0° 334° (NNW) 3,115 8.8 -18.4°
Reaches altitude 10° 23:17:02 10° 335° (NNW) 2,191 7.9 -18.4°
Maximum altitude 23:22:00 83° 65° (ENE) 718 4.3 -18.4°
Enters shadow 23:24:22 31° 150° (SSE) 1,224 5.1 -18.3°
